This is the latest recevied weather packets stored in our database for station/object WR9A-13. If no packets are shown the sender has not sent any weather packets the latest 10 day(s).
| Time | Temp. | Humidity | Pressure | Rain* | Wind** | Luminosity | Snow |
|---|---|---|---|---|---|---|---|
| 1777498529 | 16.11° C | 55% | 1013.7 hPa | 0 mm | - | - | - |
| 1777498216 | 16.11° C | 55% | 1013.7 hPa | 0 mm | - | - | - |
| 1777497929 | 16.11° C | 60% | 1013.7 hPa | 0 mm | - | - | - |
| 1777497627 | 15.56° C | 59% | 1013.7 hPa | 0 mm | - | - | - |
| 1777497314 | 15.56° C | 59% | 1013.8 hPa | 0 mm | - | - | - |
| 1777497031 | 16.11° C | 57% | 1013.7 hPa | 0 mm | - | - | - |
| 1777496718 | 16.11° C | 56% | 1013.6 hPa | 0.25 mm | - | - | - |
| 1777496428 | 16.11° C | 59% | 1013.8 hPa | 0.25 mm | - | - | - |
| 1777496116 | 16.11° C | 58% | 1013.7 hPa | 0.25 mm | - | - | - |
| 1777495833 | 16.11° C | 57% | 1013.9 hPa | 0.25 mm | - | - | - |
| 1777495521 | 16.67° C | 57% | 1013.7 hPa | 0.25 mm | - | - | - |
| 1777495217 | 16.67° C | 58% | 1013.7 hPa | 0.25 mm | - | - | - |
| 1777494937 | 16.67° C | 61% | 1013.7 hPa | 0.25 mm | - | - | - |
| 1777494623 | 16.11° C | 58% | 1013.9 hPa | 0.25 mm | - | - | - |
| 1777494340 | 16.11° C | 59% | 1013.9 hPa | 0.25 mm | - | - | - |
| 1777494027 | 16.11° C | 60% | 1013.7 hPa | 0.25 mm | - | - | - |
| 1777493715 | 16.11° C | 59% | 1013.8 hPa | 0.25 mm | - | - | - |
| 1777493432 | 16.11° C | 58% | 1013.8 hPa | 0.25 mm | - | - | - |
| 1777493119 | 16.11° C | 59% | 1013.8 hPa | 0 mm | - | - | - |
| 1777492828 | 16.67° C | 59% | 1013.8 hPa | 0 mm | - | - | - |
| 1777492523 | 16.67° C | 59% | 1013.8 hPa | 0 mm | - | - | - |
| 1777492241 | 16.67° C | 60% | 1013.8 hPa | 0 mm | - | - | - |
| 1777491924 | 16.67° C | 60% | 1013.8 hPa | 0 mm | - | - | - |
| 1777491640 | 16.11° C | 59% | 1013.8 hPa | 0 mm | - | - | - |
| 1777491327 | 16.11° C | 58% | 1013.8 hPa | 0 mm | - | - | - |
* Rain latest hour (hover to see other rain measurements)
** Current wind speed in m/s (hover to see current wind gust speed)